FW0973 Weather Reports


Display with metric or nautical units.
time (UTC)temp
F
wind
direction
speed
MPH
gust
MPH
rain 1hr
in
rain 24hr
in
rain mn
in
humidity
%
barometer
mb
20191020081804 47 289 0.0 0.0 0.01 0.17 0.03 91 1019.9
20191020081304 47 289 0.0 0.0 0.01 0.17 0.03 91 1019.6
20191020080804 47 289 0.0 0.0 0.01 0.17 0.03 91 1019.6
20191020080304 47 289 0.0 3.0 0.01 0.17 0.03 91 1019.5
20191020074804 47 347 1.0 5.0 0.00 0.17 0.02 91 1019.4
20191020074304 47 0 0.0 5.0 0.00 0.17 0.02 91 1019.2
20191020073804 47 19 1.0 7.0 0.00 0.17 0.02 91 1019.1
20191020073303 47 322 0.0 5.0 0.00 0.17 0.02 91 1019.0
20191020071803 47 284 0.0 1.0 0.00 0.17 0.02 91 1018.6
20191020071303 48 284 0.0 0.0 0.00 0.17 0.02 91 1018.4
20191020070804 48 284 0.0 0.0 0.00 0.17 0.02 91 1018.3
20191020070304 47 284 0.0 3.0 0.00 0.17 0.02 91 1018.3
20191020064803 48 291 0.0 5.0 0.00 0.17 0.02 91 1018.0
20191020064304 48 318 3.0 6.0 0.00 0.17 0.02 91 1017.9
20191020063805 48 289 3.0 10.0 0.00 0.17 0.02 91 1017.9
20191020063303 48 302 3.0 7.0 0.00 0.17 0.02 91 1017.9
20191020061803 47 283 1.0 6.0 0.00 0.17 0.02 90 1017.7
20191020061303 48 272 0.0 3.0 0.00 0.17 0.02 90 1017.6
20191020060803 48 276 0.0 2.0 0.00 0.17 0.02 90 1017.6
20191020060303 48 277 0.0 6.0 0.00 0.17 0.02 90 1017.5
20191020054803 48 263 2.0 5.0 0.00 0.17 0.02 90 1017.3
20191020054303 48 300 2.0 9.0 0.01 0.17 0.02 90 1017.3
20191020053803 48 281 3.0 8.0 0.01 0.17 0.02 90 1017.3
20191020053303 48 312 5.0 12.0 0.01 0.18 0.02 90 1017.3
20191020051804 48 294 3.0 7.0 0.01 0.18 0.02 90 1017.3
20191020051304 48 299 4.0 9.0 0.01 0.18 0.02 89 1017.2
20191020050805 48 287 1.0 7.0 0.01 0.18 0.02 89 1017.2
20191020050304 48 292 1.0 9.0 0.01 0.18 0.02 89 1017.1
20191020044804 48 292 4.0 7.0 0.01 0.18 0.02 89 1016.8
20191020044304 48 330 2.0 10.0 0.00 0.17 0.02 89 1016.8
20191020043803 48 315 2.0 8.0 0.00 0.17 0.02 89 1016.7
20191020043303 48 300 1.0 13.0 0.00 0.17 0.02 89 1016.7
20191020041803 48 295 5.0 12.0 0.00 0.17 0.02 88 1016.5
20191020041304 48 292 5.0 13.0 0.00 0.17 0.02 88 1016.4
20191020040804 48 306 5.0 9.0 0.00 0.17 0.02 87 1016.4
20191020040303 48 312 5.0 12.0 0.00 0.17 0.02 87 1016.3
20191020034803 49 324 7.0 16.0 0.00 0.17 0.02 86 1016.2
20191020034303 49 329 6.0 12.0 0.00 0.17 0.02 86 1016.3
20191020033803 48 307 7.0 14.0 0.00 0.17 0.02 86 1016.2
20191020033303 48 306 4.0 10.0 0.00 0.17 0.02 86 1016.2
20191020031803 48 322 1.0 9.0 0.00 0.17 0.02 85 1016.1
20191020031303 48 329 3.0 13.0 0.00 0.17 0.02 85 1016.1
20191020030804 48 319 1.0 6.0 0.00 0.17 0.02 85 1015.8
20191020030304 48 304 2.0 12.0 0.00 0.17 0.02 85 1015.8
20191020024804 48 305 6.0 12.0 0.00 0.17 0.02 85 1015.8
20191020024304 48 299 7.0 12.0 0.00 0.17 0.02 85 1015.7
20191020023803 48 290 6.0 12.0 0.01 0.17 0.02 85 1015.8
20191020023304 48 295 6.0 12.0 0.01 0.17 0.02 85 1015.7
20191020021803 48 296 3.0 9.0 0.01 0.17 0.02 85 1015.6
20191020021303 48 306 3.0 10.0 0.01 0.17 0.02 85 1015.6
20191020020804 48 322 2.0 6.0 0.01 0.17 0.02 85 1015.6
20191020020304 48 285 2.0 7.0 0.01 0.17 0.02 85 1015.6
20191020014803 47 296 1.0 7.0 0.01 0.17 0.02 84 1015.4
20191020014303 47 292 3.0 10.0 0.01 0.17 0.02 84 1015.4
20191020013803 47 260 1.0 10.0 0.00 0.17 0.01 84 1015.3
20191020013304 47 266 1.0 7.0 0.00 0.17 0.01 85 1015.2
20191020011804 47 247 2.0 9.0 0.00 0.17 0.01 84 1015.1
20191020011304 47 278 2.0 6.0 0.00 0.17 0.01 85 1015.1
20191020010803 46 248 2.0 7.0 0.00 0.17 0.01 85 1015.1
20191020010303 47 285 2.0 6.0 0.00 0.17 0.01 85 1015.1
20191020004803 47 293 2.0 6.0 0.00 0.17 0.01 86 1014.8
20191020004304 47 305 3.0 8.0 0.00 0.17 0.01 86 1014.7
20191020003804 47 307 2.0 7.0 0.00 0.17 0.01 87 1014.7
20191020003304 47 309 2.0 7.0 0.00 0.17 0.01 87 1014.7
20191020001803 47 327 2.0 5.0 0.01 0.17 0.01 87 1014.6
20191020001303 47 321 3.0 7.0 0.01 0.17 0.01 87 1014.6
20191020000803 47 317 2.0 13.0 0.01 0.17 0.01 87 1014.6
20191020000303 47 305 0.0 7.0 0.01 0.17 0.01 87 1014.6
20191019234803 47 292 2.0 6.0 0.01 0.17 0.01 88 1014.5
20191019234304 47 319 2.0 6.0 0.01 0.17 0.01 88 1014.4
20191019233804 47 319 2.0 7.0 0.01 0.17 0.01 88 1014.3
20191019233304 48 335 3.0 10.0 0.01 0.17 0.01 89 1014.2
20191019231803 48 331 1.0 6.0 0.00 0.16 0.00 90 1014.0
20191019231303 48 338 2.0 6.0 0.00 0.16 0.00 90 1014.0
20191019230816 48 280 0.0 7.0 0.00 0.16 0.00 90 1014.0
20191019230303 48 309 0.0 9.0 0.00 0.16 0.00 90 1014.0
20191019224804 48 336 2.0 6.0 0.00 0.16 0.16 91 1014.0
20191019224304 48 317 1.0 6.0 0.00 0.16 0.16 91 1013.9
20191019223804 48 350 1.0 10.0 0.00 0.16 0.16 91 1013.8
20191019223304 48 325 2.0 12.0 0.00 0.16 0.16 90 1013.7
20191019221803 48 309 0.0 3.0 0.01 0.16 0.16 90 1013.5
20191019221303 48 303 1.0 3.0 0.01 0.16 0.16 90 1013.5
20191019220803 48 294 0.0 2.0 0.01 0.16 0.16 90 1013.4
20191019220305 48 293 1.0 9.0 0.01 0.16 0.16 90 1013.2
20191019214804 48 270 1.0 5.0 0.01 0.16 0.16 90 1013.1
20191019214304 48 271 0.0 6.0 0.01 0.16 0.16 90 1013.1
20191019213804 48 263 0.0 3.0 0.01 0.16 0.16 90 1013.0
20191019213304 48 254 1.0 3.0 0.01 0.16 0.16 91 1013.0
20191019211804 48 263 0.0 5.0 0.00 0.15 0.15 90 1012.8
20191019211303 48 268 1.0 5.0 0.00 0.15 0.15 90 1012.7
20191019210803 48 280 1.0 3.0 0.01 0.15 0.15 90 1012.7
20191019210303 48 265 1.0 3.0 0.01 0.15 0.15 91 1012.6
20191019204803 48 276 0.0 3.0 0.01 0.15 0.15 91 1012.6
20191019204304 48 265 0.0 1.0 0.01 0.15 0.15 90 1012.5
20191019203804 48 265 0.0 1.0 0.01 0.15 0.15 91 1012.4
20191019203304 48 267 0.0 2.0 0.01 0.15 0.15 91 1012.4
20191019201804 48 268 0.0 1.0 0.01 0.15 0.15 90 1012.1
20191019201303 48 267 0.0 5.0 0.01 0.15 0.15 90 1012.0
20191019200803 48 277 1.0 6.0 0.00 0.14 0.14 90 1012.0
20191019200303 48 290 1.0 6.0 0.00 0.14 0.14 90 1012.0
20191019194803 48 298 1.0 7.0 0.01 0.14 0.14 90 1011.9
20191019194304 48 303 1.0 6.0 0.01 0.14 0.14 90 1011.8
20191019193804 48 313 1.0 5.0 0.01 0.14 0.14 90 1011.8
20191019193304 48 308 1.0 12.0 0.01 0.14 0.14 90 1011.6
20191019191804 48 294 2.0 9.0 0.01 0.14 0.14 89 1011.5
20191019191304 49 298 3.0 12.0 0.01 0.14 0.14 89 1011.5
20191019190804 49 307 2.0 7.0 0.01 0.14 0.14 90 1011.4
20191019190304 49 306 5.0 9.0 0.02 0.14 0.14 89 1011.4
20191019184804 49 309 3.0 10.0 0.01 0.13 0.13 89 1011.2
20191019184303 49 303 3.0 8.0 0.01 0.13 0.13 89 1011.1
20191019183803 49 296 1.0 3.0 0.01 0.13 0.13 92 1011.0
20191019183303 49 298 1.0 7.0 0.01 0.13 0.13 88 1011.0
20191019181804 49 291 4.0 9.0 0.01 0.13 0.13 87 1010.7
20191019181303 49 307 3.0 7.0 0.01 0.13 0.13 87 1010.8
20191019180803 49 288 0.0 5.0 0.01 0.13 0.13 87 1010.6
20191019180303 50 301 2.0 10.0 0.01 0.13 0.13 87 1010.5
20191019174804 51 318 2.0 7.0 0.01 0.13 0.13 86 1010.4
20191019174303 51 298 1.0 7.0 0.01 0.13 0.13 85 1010.4
20191019173804 51 307 2.0 7.0 0.01 0.13 0.13 85 1010.1
20191019173303 51 325 2.0 10.0 0.01 0.13 0.13 85 1010.0
20191019171804 51 297 0.0 5.0 0.01 0.13 0.13 84 1009.8
20191019171303 51 307 2.0 3.0 0.02 0.13 0.13 84 1009.7
20191019170803 51 348 0.0 3.0 0.02 0.13 0.13 83 1009.6
20191019170304 51 305 0.0 3.0 0.01 0.12 0.12 82 1009.5
20191019164803 51 346 2.0 6.0 0.01 0.13 0.12 81 1009.3
20191019164304 51 336 1.0 9.0 0.01 0.13 0.12 81 1009.3
20191019163804 52 324 2.0 10.0 0.01 0.13 0.12 81 1009.2
20191019163304 52 308 5.0 12.0 0.01 0.13 0.12 81 1009.2
20191019161806 52 289 1.0 6.0 0.02 0.13 0.12 80 1008.9
20191019161303 52 314 3.0 6.0 0.01 0.12 0.11 79 1008.9
20191019160803 52 313 3.0 12.0 0.01 0.12 0.11 79 1008.8
20191019160304 52 310 3.0 13.0 0.01 0.12 0.11 80 1008.8
20191019154804 53 306 5.0 10.0 0.01 0.12 0.11 79 1008.6
20191019154304 53 321 4.0 9.0 0.02 0.12 0.11 79 1008.6
20191019153804 53 327 3.0 12.0 0.02 0.12 0.11 79 1008.4
20191019153304 53 342 4.0 14.0 0.02 0.12 0.11 79 1008.3
20191019151804 53 323 3.0 12.0 0.01 0.11 0.10 80 1008.3
20191019151304 53 321 3.0 7.0 0.01 0.11 0.10 80 1008.3
20191019150804 53 332 3.0 9.0 0.01 0.11 0.10 79 1008.2
20191019150304 53 331 5.0 14.0 0.01 0.11 0.10 79 1008.1
20191019144804 54 313 2.0 10.0 0.02 0.12 0.10 80 1007.8
20191019144303 54 298 2.0 9.0 0.01 0.11 0.09 81 1007.8
20191019143804 54 319 4.0 12.0 0.01 0.11 0.09 80 1007.8
20191019143303 54 329 3.0 12.0 0.01 0.11 0.09 79 1007.7
20191019141804 54 330 5.0 13.0 0.02 0.11 0.09 78 1007.5
20191019141304 55 325 5.0 14.0 0.02 0.11 0.09 78 1007.5
20191019140804 55 320 6.0 12.0 0.02 0.11 0.09 78 1007.3
20191019140304 54 309 6.0 12.0 0.02 0.11 0.09 78 1007.2
20191019134803 54 342 5.0 13.0 0.01 0.10 0.09 78 1007.2
20191019134304 54 348 6.0 14.0 0.02 0.10 0.09 78 1007.1
20191019133804 55 325 8.0 17.0 0.02 0.10 0.09 78 1007.1
20191019133303 55 330 6.0 16.0 0.02 0.10 0.09 79 1007.0
20191019131803 55 336 5.0 13.0 0.01 0.10 0.08 81 1006.9
20191019131304 54 325 5.0 13.0 0.01 0.10 0.08 81 1006.8
20191019130804 54 326 7.0 13.0 0.02 0.10 0.08 82 1006.7
20191019130304 55 307 5.0 13.0 0.02 0.10 0.08 83 1006.7
20191019124804 54 351 5.0 12.0 0.02 0.10 0.08 85 1006.6
20191019124304 54 330 6.0 12.0 0.01 0.09 0.07 85 1006.6
20191019123804 55 339 4.0 9.0 0.01 0.09 0.07 87 1006.6
20191019123304 54 318 2.0 10.0 0.01 0.09 0.07 88 1006.4
20191019121804 53 292 2.0 7.0 0.02 0.09 0.07 89 1006.4
20191019121303 53 330 2.0 7.0 0.02 0.09 0.07 90 1006.3
20191019120804 53 340 2.0 7.0 0.01 0.09 0.06 90 1006.3
20191019120304 53 309 3.0 10.0 0.01 0.09 0.06 90 1006.2
20191019114804 53 307 3.0 7.0 0.02 0.09 0.06 91 1006.1
20191019114304 53 304 5.0 10.0 0.02 0.09 0.06 91 1006.0
20191019113804 53 314 3.0 14.0 0.02 0.09 0.06 92 1006.0
20191019113304 53 301 7.0 13.0 0.02 0.09 0.06 92 1005.8
20191019111803 52 11 2.0 10.0 0.01 0.09 0.06 93 1005.6
20191019111304 52 320 6.0 14.0 0.02 0.09 0.06 94 1005.6
20191019110805 51 21 1.0 7.0 0.02 0.09 0.06 94 1005.6
20191019110305 51 326 1.0 9.0 0.02 0.09 0.06 94 1005.6
20191019104804 50 239 0.0 1.0 0.01 0.09 0.05 94 1005.4
20191019104303 50 239 0.0 1.0 0.01 0.09 0.05 94 1005.3
20191019103804 50 239 0.0 0.0 0.02 0.09 0.05 94 1005.3
20191019103304 50 239 2.0 3.0 0.02 0.09 0.05 94 1005.3
20191019101804 49 240 0.0 0.0 0.02 0.09 0.05 94 1005.2
20191019101303 49 240 1.0 2.0 0.01 0.08 0.04 94 1005.1
20191019100803 49 240 0.0 0.0 0.01 0.08 0.04 94 1005.1
20191019100304 49 240 0.0 3.0 0.01 0.08 0.04 94 1005.1
20191019094804 49 240 0.0 3.0 0.02 0.09 0.04 94 1004.9
20191019094304 49 289 0.0 0.0 0.02 0.09 0.04 94 1004.8
20191019093803 48 289 0.0 3.0 0.01 0.08 0.03 94 1004.7
20191019093304 48 5 0.0 1.0 0.01 0.08 0.03 94 1004.6
20191019091806 48 5 0.0 1.0 0.01 0.08 0.03 94 1004.6
20191019091304 48 5 0.0 0.0 0.01 0.08 0.03 94 1004.5
20191019090803 48 5 0.0 2.0 0.02 0.08 0.03 94 1004.4
20191019090304 48 304 1.0 6.0 0.02 0.08 0.03 98 1004.4
20191019084803 48 340 0.0 3.0 0.01 0.08 0.02 93 1004.1
20191019084304 48 11 1.0 5.0 0.01 0.08 0.02 93 1004.2
20191019083803 48 308 1.0 3.0 0.01 0.08 0.02 93 1004.1
20191019083304 48 321 0.0 3.0 0.01 0.08 0.02 93 1004.0